SCP
0 0 0 0 0 0 0 0 0 0 0 0 0 0 0 0 0 0 0 0 0 0 0 0 0 0 0 1 1 1 1 1 1 2 2 3 3 3
0 0 0 0 0 0 0 0 0 0 0 0 0 0 0 0 0 0 0 0 0 0 0 0 0 0 0 0 1 1 1 1 1 2 2 3 3 3
0 0 0 0 0 0 0 0 0 0 0 0 0 0 0 0 0 0 0 0 0 0 0 0 0 0 0 0 0 0 0 1 1 1 2 3 3 3
0 0 0 0 0 0 0 0 0 0 0 0 0 0 0 0 0 0 0 0 0 0 0 0 0 0 0 0 0 0 0 0 0 1 1 2 2 2
0 0 0 0 0 0 0 0 0 0 0 0 0 0 0 0 0 0 0 0 0 0 0 0 0 0 0 0 0 0 0 0 0 0 1 1 1 2
0 0 0 0 0 0 0 0 0 0 0 0 0 0 0 0 0 0 0 0 0 0 0 0 1 0 0 0 0 0 0 0 0 0 0 0 1 1
0 0 0 0 0 0 0 0 0 0 0 0 0 0 0 0 0 0 0 0 0 0 1 1 1 1 1 1 0 0 0 0 0 0 0 0 0 0
0 0 0 0 0 0 0 0 0 0 0 0 0 0 0 0 0 0 0 0 0 0 0 1 1 1 1 1 0 0 0 0 0 0 0 0 0 0
0 0 0 0 0 0 0 0 0 0 0 0 0 0 0 0 0 0 0 0 0 0 0 0 1 1 1 1 0 0 0 0 0 0 0 0 0 0
0 0 0 0 0 0 0 0 0 0 0 0 0 0 0 0 0 0 0 0 0 0 0 0 1 1 1 1 0 0 0 0 0 0 0 0 0 0
0 0 0 0 0 0 0 0 0 0 0 0 0 0 0 0 0 0 0 0 0 0 0 0 0 1 1 1 1 0 0 0 0 0 0 0 0 0
0 0 0 0 0 0 0 0 0 0 0 0 0 0 0 0 0 0 0 0 0 0 0 0 0 0 1 1 1 0 0 0 0 0 0 0 0 0
0 0 0 0 0 0 0 0 0 0 0 0 0 0 0 0 0 0 0 0 0 0 0 0 0 0 0 0 0 0 0 0 0 0 0 0 0 0
0 0 0 0 0 0 0 0 0 0 0 0 0 0 0 0 0 0 0 0 0 0 0 0 0 0 0 0 0 0 0 0 0 0 0 0 0 0
0 0 0 0 0 0 0 0 0 0 0 0 0 0 0 0 0 0 0 0 0 0 0 0 0 0 0 0 0 0 0 0 0 0 0 0 0 0
0 0 0 0 0 0 0 0 0 0 0 0 0 0 0 0 0 0 0 0 0 0 0 0 0 0 0 0 0 0 0 0 0 0 0 0 0 0
0 0 0 0 0 0 0 0 0 0 0 0 0 0 0 0 0 0 0 0 0 0 0 0 0 0 0 0 0 0 0 0 0 0 0 0 0 0
0 0 0 0 0 0 0 0 0 0 0 0 0 0 0 0 0 0 0 0 0 0 0 0 0 0 0 0 0 0 0 0 0 0 0 0 0 0
0 0 0 0 0 0 0 0 0 0 0 0 0 0 0 0 0 0 0 0 0 0 0 0 0 0 0 0 0 0 0 0 0 0 0 0 0 0
0 0 0 0 0 0 0 0 0 0 0 0 0 0 0 0 0 0 0 0 0 0 0 0 0 0 0 0 0 0 0 0 0 0 0 0 0 0
0 0 0 0 0 0 0 0 0 0 0 0 0 0 0 0 0 0 0 0 0 0 0 0 0 0 0 0 0 0 0 0 0 0 0 0 0 0
0 0 0 0 0 0 0 0 0 0 0 0 0 0 0 0 0 0 0 0 0 0 0 0 0 0 0 0 0 0 0 0 0 0 0 0 0 0
0 0 0 0 0 0 0 0 0 0 0 0 0 0 0 0 0 0 0 0 0 0 0 0 0 0 0 0 0 0 0 0 0 0 0 0 0 0
Wind_Speed
12 12 11 10 10 10 10 10 10 12 11 11 9 8 8 9 11 11 11 14 17 17 15 13 12 12 12 9 8 11 16 19 19 20 21 23 24 24
10 11 11 10 9 9 9 9 9 10 11 10 11 11 11 10 13 12 11 16 16 15 15 12 10 11 11 8 7 10 14 17 19 21 22 22 22 22
11 10 10 10 8 8 8 8 8 8 11 11 11 11 13 12 11 10 10 10 9 12 13 12 10 10 11 9 8 9 15 18 20 21 21 21 20 19
11 11 11 9 9 8 7 8 8 8 9 12 11 11 12 12 11 11 9 8 8 11 13 12 11 10 10 9 8 8 13 18 19 20 20 20 19 18
11 11 11 11 10 8 8 7 7 8 8 9 11 9 9 9 10 10 10 7 8 8 10 11 11 10 9 9 8 9 12 16 20 22 21 21 19 18
12 11 11 12 11 11 8 8 8 9 8 8 8 8 8 8 8 7 8 7 7 6 7 7 8 8 8 7 8 9 12 15 19 23 23 22 21 20
13 12 12 15 16 13 10 10 10 8 8 8 8 7 7 8 7 7 8 8 7 3 5 4 4 4 5 5 6 7 11 15 18 21 23 22 21 21
12 13 13 13 16 16 17 15 13 11 10 8 7 8 9 9 9 8 8 7 5 4 6 5 3 3 3 2 4 6 9 13 15 18 21 22 22 22
11 12 11 12 16 11 13 14 12 13 12 9 9 9 10 10 11 10 9 8 7 7 6 5 2 2 1 1 2 5 6 10 13 16 19 21 22 22
10 11 12 13 14 14 11 11 10 9 10 8 8 9 9 10 9 9 10 10 10 7 5 4 3 1 0 0 1 2 4 8 10 13 17 20 21 21
8 10 12 13 19 20 13 12 12 10 10 13 12 11 12 12 10 7 7 6 5 3 3 3 3 2 1 1 1 1 3 6 9 12 15 18 19 20
7 8 13 16 19 20 13 12 13 12 11 11 10 9 8 8 10 6 6 6 5 4 5 5 3 2 1 1 1 1 1 3 8 11 14 16 18 13
7 7 9 18 18 18 15 11 15 14 10 10 9 8 7 6 6 6 5 5 6 4 4 6 4 3 1 1 1 2 2 1 3 5 10 15 17 13
6 7 9 16 16 16 13 16 18 14 8 8 8 8 8 8 8 8 7 6 7 8 8 7 4 4 3 1 1 2 2 2 3 4 4 9 11 11
5 9 12 14 14 11 14 17 13 9 9 9 9 9 9 9 8 7 7 6 6 6 7 7 5 4 4 2 1 2 2 3 4 5 5 5 4 6
5 8 10 10 9 10 11 10 8 9 9 9 9 9 9 9 8 8 7 7 4 3 3 4 4 4 2 2 1 2 2 2 3 5 7 7 6 5
6 6 6 6 6 7 7 8 8 9 9 9 9 9 9 9 8 8 7 6 5 5 4 4 3 1 2 4 1 3 4 4 4 4 7 8 7 7
8 6 6 6 6 7 7 7 8 8 9 9 9 9 9 9 9 8 8 7 6 5 5 4 3 1 1 4 8 2 4 4 4 5 7 9 8 7
6 6 6 6 6 6 6 6 7 8 8 8 9 9 9 9 9 9 8 8 7 6 5 5 3 2 1 2 5 11 3 4 6 7 7 8 9 7
6 7 7 6 6 5 5 5 6 6 7 7 8 8 9 9 9 9 8 9 8 7 6 5 5 4 2 2 3 5 11 4 7 9 9 10 11 15
8 7 7 7 6 5 5 5 5 5 6 7 7 8 8 8 8 9 8 11 9 7 7 6 5 5 2 2 5 5 7 14 10 7 10 12 11 9
8 8 7 7 6 5 4 4 4 4 5 5 6 7 7 8 8 9 9 8 7 7 6 5 4 3 2 4 7 8 7 9 16 21 18 10 6 9
9 9 8 7 6 5 4 4 4 4 3 4 5 6 7 7 7 8 8 8 7 8 7 6 5 5 5 6 7 8 11 10 8 11 12 18 23 27
Wind_Direction
288 284 278 274 271 270 271 273 282 294 301 306 307 311 312 305 305 302 299 299 302 301 298 298 303 307 296 287 263 229 211 203 196 194 197 202 204 203
297 288 281 275 273 271 270 271 273 281 290 297 303 303 306 302 302 300 295 296 290 289 287 287 290 298 295 284 273 232 206 199 193 191 194 199 201 199
313 307 300 291 286 282 280 278 278 281 286 294 298 303 306 306 307 303 295 290 283 280 281 280 280 286 291 285 272 241 207 196 192 189 192 196 198 196
322 320 317 311 304 294 291 291 290 288 290 295 300 305 307 310 308 301 297 290 285 278 277 276 271 271 280 286 271 248 210 194 189 189 189 191 194 194
334 330 326 325 320 313 308 304 297 295 292 292 298 304 307 314 313 308 302 296 291 279 270 263 260 261 268 275 274 248 210 194 187 187 189 190 190 188
345 341 336 338 337 333 322 322 314 307 303 301 302 310 316 322 321 324 316 312 300 294 285 266 253 253 256 265 267 245 210 194 190 186 185 183 180 180
346 344 342 345 347 349 349 346 338 327 323 320 318 322 331 335 336 328 320 316 300 317 305 274 246 233 235 251 256 236 211 196 189 187 183 180 177 175
345 344 341 344 345 350 350 352 351 344 339 332 325 327 330 331 327 324 323 321 309 347 328 295 253 233 223 231 254 227 210 196 190 186 182 180 178 176
345 343 343 342 347 345 347 347 345 347 343 334 322 324 323 327 323 320 319 315 300 313 316 293 276 256 251 263 252 211 201 192 188 185 181 179 178 176
344 341 339 340 342 354 349 343 340 342 338 332 323 319 319 320 319 311 304 298 286 272 267 282 299 286 306 286 308 200 187 182 180 179 178 177 176 174
339 339 340 342 345 355 351 342 339 341 338 333 328 324 324 325 332 322 316 309 300 312 328 302 311 320 345 346 359 90 171 174 171 172 171 171 171 170
336 338 341 347 350 354 352 345 342 342 337 332 331 330 330 328 334 328 316 310 306 308 353 335 317 327 38 10 6 44 114 145 155 162 167 167 166 168
332 336 340 347 351 352 353 350 347 343 334 332 331 335 337 336 334 327 312 295 291 290 342 344 321 330 344 33 14 22 52 77 121 140 155 162 167 169
324 332 338 345 348 351 353 353 352 347 341 339 340 342 341 340 334 324 312 290 269 272 293 309 306 329 337 358 73 43 41 47 76 98 119 142 152 153
323 329 336 343 344 345 351 354 354 350 348 346 344 341 336 332 329 327 322 306 276 260 270 273 273 294 307 319 28 72 68 43 57 87 90 98 119 138
326 322 326 333 338 341 346 352 353 353 350 345 341 337 336 338 343 342 338 334 326 316 286 287 284 275 294 318 22 64 63 82 68 84 87 74 63 82
333 321 327 334 340 345 347 350 352 352 352 348 345 343 343 345 347 347 344 345 349 344 340 338 326 345 30 14 57 85 94 84 87 95 98 85 60 64
343 334 335 335 336 338 341 345 350 353 350 346 347 347 346 346 348 350 352 354 353 350 349 343 335 338 58 46 25 71 86 89 87 87 101 100 82 60
346 338 334 331 329 328 331 336 341 347 345 344 347 348 347 347 350 353 355 355 355 352 352 351 348 342 102 82 21 17 63 105 103 88 82 95 99 90
343 335 330 327 322 319 321 326 332 338 345 345 347 349 348 349 353 355 357 357 354 353 358 8 10 6 30 82 76 29 26 72 113 108 102 95 90 93
337 333 328 325 320 313 311 313 319 329 340 340 345 349 349 350 354 355 355 358 1 2 4 5 359 356 8 83 94 69 45 50 67 102 120 117 111 105
331 329 326 322 319 312 304 301 304 316 332 337 345 348 349 351 354 355 357 358 1 1 359 1 1 12 43 98 107 102 89 73 64 59 55 72 122 136
327 324 322 319 316 311 300 289 287 301 320 333 341 347 348 352 354 357 358 1 4 6 7 17 33 52 68 90 103 104 101 94 85 76 65 76 91 102